www.pogodaiklimat.ru

Погода и климат >> Архив погоды >> Филиппины >> Котобато


ПОГОДА в Котобато

  • Прогноз погоды в Котобато
  • Монитор погоды в Котобато

АРХИВ ПОГОДЫ в Котобато

Время (UTC), дата Ветер
(напр.,м/с)
 
Видим.   Явления Облачность Т
(С)
Тd
(С)
f
(%)
Тe
(С)
Тes
(С)
Комфортность P
(гПа)
Po
(гПа)
Тmin
(С)
Tmax
(С)
R
(мм)
R24
(мм)
S
(см)
15 18.06 ЮВ 2 12 км мгла {туман} 10/4 480 м
[Cb cap Ac As Cs]
+26.8 +24.4 87 +38 +38 очень
душно
1009.0 1002.4
18 18.06 штиль 0 12 км зарница {туман} 10/4 480 м
[Cb cap Ac As Cs]
+25.8 +23.8 89 +35 +35 очень
душно
1007.8 1001.1
21 18.06 штиль 0 12 км мгла {туман} 9/4 500 м
[Cb calv Cs]
+25.1 +23.4 90 +34 +34 очень
душно
1008.8 1002.1
00 19.06 ЮВ 2 15 км мгла {туман} 4/3 540 м
[Cu med, cong Ci sp]
+28.5 +24.4 79 +40 +45 очень
душно
1009.4 1002.8 +23.8
03 19.06 СВ 3 15 км мгла {туман} 4/3 540 м
[Cu med, cong Ci fib]
+33.3 +24.7 61 +46 +58 опасность
перегрева
1008.4 1001.9
06 19.06 З 3 12 км мгла {туман} 4/3 500 м
[Cb calv Ci fib]
+33.6 +24.9 60 +47 +55 опасность
перегрева
1006.1 999.6
09 19.06 З 3 12 км мгла {туман} 8/4 480 м
[Cb cap Cs]
+31.2 +23.4 63 +42 +42 опасность
перегрева
1005.4 998.9
12 19.06 Ю 2 12 км мгла {туман} 8/4 540 м
[Cu med, cong Cs]
+28.4 +24.2 78 +40 +40 очень
душно
1007.9 1001.3 +35.2
15 19.06 Ю 1 8000 м гроза, ливневой дождь 10/4 480 м
[Cb cap Ac As]
+25.7 +23.7 89 +35 +35 очень
душно
1009.0 1002.3 2
18 19.06 СВ 2 10 км мгла {гроза} 10/4 500 м
[Cu Sc Ac As Cs]
+25.2 +23.7 91 +34 +34 очень
душно
1008.0 1001.3 3
21 19.06 штиль 0 12 км мгла {туман} 8/3 540 м
[Cu med, cong Ac As Cs]
+24.9 +23.7 93 +34 +34 очень
душно
1008.5 1001.8
00 20.06 З 2 12 км мгла {туман} 8/4 540 м
[Cu med, cong Cs]
+29.0 +25.1 80 +42 +46 опасность
перегрева
1010.0 1003.4 +23.3 3
03 20.06 З 3 15 км мгла {туман} 8/4 540 м
[Cu med, cong Cs]
+31.3 +24.7 68 +44 +53 опасность
перегрева
1009.0 1002.5
06 20.06 З 4 15 км мгла {туман} 6/3 540 м
[Cu med, cong Cs]
+31.3 +24.3 66 +43 +50 опасность
перегрева
1007.2 1000.7
09 20.06 З 3 12 км мгла {туман} 6/3 540 м
[Cu med, cong Cs]
+31.0 +24.7 69 +44 +44 опасность
перегрева
1007.0 1000.5
12 20.06 штиль 0 12 км зарница {туман} 6/3 480 м
[Cb cap Cs]
+28.0 +24.7 82 +40 +40 очень
душно
1008.8 1002.2 +32.4
15 20.06 штиль 0 12 км мгла {туман} 9/4 500 м
[Cu Sc Ac As Cs]
+26.9 +24.4 86 +38 +38 очень
душно
1009.9 1003.3
18 20.06 Ю 1 12 км мгла {туман} 9/4 540 м
[Cu med, cong Cs]
+26.3 +24.2 88 +37 +37 очень
душно
1008.2 1001.5
21 20.06 штиль 0 12 км мгла {туман} 8/4 500 м
[Cu Sc Cs]
+25.7 +24.1 91 +36 +36 очень
душно
1008.8 1002.1
00 21.06 Ю 2 12 км мгла {туман} 9/4 500 м
[Cu Sc Cs]
+27.8 +23.4 77 +38 +41 очень
душно
1009.9 1003.3 +23.2 3
03 21.06 З 3 12 км мгла {туман} 9/4 500 м
[Cu Sc Ac As Cs]
+30.8 +23.8 66 +42 +48 опасность
перегрева
1009.3 1002.7 0.0
06 21.06 З 4 15 км мгла {туман} 8/4 500 м
[Cu Sc Cs]
+31.3 +25.5 71 +46 +51 опасность
перегрева
1007.5 1001.0
09 21.06 З 3 15 км мгла {туман} 9/4 500 м
[Cu Sc Ac As Cs]
+29.0 +24.2 75 +40 +41 очень
душно
1007.2 1000.6
12 21.06 ЮЗ 2 12 км зарница {туман} 8/4 500 м
[Cu Sc Ac As Cs]
+28.4 +24.4 79 +40 +40 очень
душно
1009.0 1002.4 +32.4
15 21.06 Ю 2 12 км мгла {туман} 8/4 500 м
[Cu Sc Cs]
+25.8 +23.3 86 +35 +35 очень
душно
1008.2 1001.5
18 21.06 Ю 2 12 км мгла {туман} 9/4 500 м
[Cu Sc Ac As Cs]
+25.0 +23.0 89 +33 +33 очень
душно
1007.7 1001.0
21 21.06 штиль 0 12 км мгла {туман} 6/3 540 м
[Cu med, cong Ci sp]
+24.7 +23.0 90 +33 +33 очень
душно
1008.5 1001.8
00 22.06 Ю 2 15 км мгла {туман} 8/4 500 м
[Cu Sc Ci sp]
+28.2 +24.2 79 +39 +43 очень
душно
1010.3 1003.7 +23.6 0.0
03 22.06 З 3 15 км в посл. час ливневой дождь {туман} 9/4 500 м
[Cb cap Ac As Cs]
+30.7 +25.5 74 +45 +51 опасность
перегрева
1009.8 1003.2
06 22.06 в посл. час ливневой дождь {туман} н/о +25.8 1008.2 0.3
09 22.06 З 2 12 км в посл. час ливневой дождь {туман} 10/4 540 м
[Cb cap Ac As Cs]
+30.3 +25.1 74 +44 +44 опасность
перегрева
1008.7 1002.1
12 22.06 Ю 1 10 км в посл. час ливневой дождь {туман} 9/4 540 м
[Cb cap Ac As Cs]
+27.4 +24.2 83 +38 +38 очень
душно
1009.4 1002.8 +32.5
15 22.06 ЮЗ 2 12 км в посл. час ливневой дождь {туман} 8/4 540 м
[Cb cap Cs]
+26.3 +23.3 84 +36 +36 очень
душно
1008.8 1002.1
18 22.06 В 1 10 км мгла {гроза, туман} 10/3 540 м
[Cb cap Ac As Cs]
+25.4 +23.0 87 +34 +34 очень
душно
1007.5 1000.8
21 22.06 ЮЗ 2 12 км мгла {туман} 10/3 500 м
[Cb cap Ac As Cs]
+25.2 +23.0 88 +34 +34 очень
душно
1006.9 1000.2
00 23.06 Ю 1 15 км мгла {гроза} 8/3 540 м
[Cu med, cong Cs]
+28.4 +24.4 79 +40 +45 очень
душно
1009.9 1003.3 +23.8 0.3
03 23.06 штиль 0 10 км слаб. ливневой дождь {туман} 10/4 540 м
[Ac As]
+30.3 +23.6 67 +41 +46 опасность
перегрева
1009.3 1002.7 2
06 23.06 З 2 15 км в посл. час ливневой дождь {туман} 9/4 540 м
[Cb cap Cs]
+32.2 +24.6 64 +45 +52 опасность
перегрева
1008.6 1002.1 2
09 23.06 З 2 12 км в посл. час ливневой дождь {туман} 10/4 540 м
[Cb cap Ac As Cs]
+29.7 +23.7 70 +41 +41 опасность
перегрева
1007.8 1001.2
12 23.06 Ю 1 10 км мгла {туман} 10/4 500 м
[Cb cap Ac As Cs]
+26.8 +23.0 80 +36 +36 очень
душно
1009.0 1002.4 +33.3
15 23.06 штиль 0 12 км мгла {туман} 9/3 540 м
[Cu med, cong Ac As Cs]
+26.0 +23.3 85 +35 +35 очень
душно
1008.4 1001.7
18 23.06 штиль 0 12 км мгла {туман} 5/3 540 м
[Cu med, cong Ci sp]
+25.4 +23.0 87 +34 +34 очень
душно
1007.3 1000.6
21 23.06 Ю 2 10 км мгла {туман} 9/4 540 м
[Cb cap Ac As Cs]
+24.4 +22.8 91 +32 +32 очень
душно
1007.9 1001.2
00 24.06 ЮВ 2 12 км мгла {туман} 5/3 540 м
[Cu hum Ci fib]
+30.2 +24.8 73 +43 +48 опасность
перегрева
1011.5 1004.9 +23.5 2
03 24.06 СВ 2 12 км мгла {туман} 8/4 500 м
[Cb calv Ci sp]
+32.6 +25.3 66 +47 +57 опасность
перегрева
1010.3 1003.8
06 24.06 СЗ 3 12 км мгла {туман} 8/4 480 м
[Cb cap Ci sp]
+32.2 +24.8 65 +45 +52 опасность
перегрева
1008.7 1002.2 0.0
09 24.06 ЮЗ 2 7000 м слаб. ливневой дождь 10/4 480 м
[Cb cap Ac As]
+25.0 +22.1 84 +32 +33 очень
душно
1009.8 1003.1 19
12 24.06 штиль 0 10 км зарница {ливн. осадки, дождь} 10/4 480 м
[Cb cap Ac As Cs]
+24.8 +22.0 84 +32 +32 очень
душно
1011.9 1005.2 19
15 24.06 ЮЗ 1 8000 м мгла {туман} 10/4 500 м
[Cu Sc Ac As Cs]
+25.2 +22.5 85 +33 +33 очень
душно
1011.0 1004.3
18 24.06 штиль 0 10 км мгла {туман} 10/4 500 м
[Cu Sc Ac As Cs]
+24.4 +21.9 86 +31 +31 очень
душно
1009.1 1002.4
21 24.06 ЮВ 2 12 км мгла {туман} 9/4 540 м
[Cu med, cong Cs]
+24.8 +22.0 84 +32 +32 очень
душно
1008.6 1001.9
00 25.06 В 2 12 км мгла {туман} 6/3 540 м
[Cu hum Ci sp]
+28.0 +24.0 79 +39 +43 очень
душно
1012.3 1005.7 +22.6 19
03 25.06 С 3 12 км мгла {туман} 5/3 540 м
[Cu med, cong Ci sp]
+32.8 +25.8 67 +48 +59 опасность
перегрева
1010.6 1004.1
06 25.06 ЮЗ 3 15 км мгла {туман} 5/4 540 м
[Cu med, cong Ci sp]
+32.2 +23.6 61 +44 +50 опасность
перегрева
1008.6 1002.1
09 25.06 ЮЗ 2 12 км мгла {туман} 6/4 540 м
[Cu med, cong Ci sp]
+30.8 +24.4 69 +43 +44 опасность
перегрева
1008.0 1001.4
12 25.06 штиль 0 12 км мгла {туман} 8/4 540 м
[Cu med, cong Cs]
+28.5 +24.3 78 +40 +40 очень
душно
1011.1 1004.5

 

Местоположение метеостанции Котобато (Филиппины): широта 7.17 долгота 124.22 высота над уровнем моря 58 м.

В архиве по умолчанию представлена погода в Котобато за последнюю неделю. Архивные данные за месяц целиком и за предыдущие месяцы, начиная с января 2011 года, Вы можете получить, выбрав интересующий диапазон дат из раскрывающегося списка и нажав кнопку "Ввод!".


*Определитесь, кто Вы:
робот инопланетянин человек

Внимание! Время в таблицах - всемирное. Для получения местного времени необходимо прибавить поправку, которая равна 8 ч.

Смотрите также архив погоды в соседних городах и на ближайших метеорологических станциях:

Погода в Кагаян-де-Оро (Филиппины) (140 км)
Погода в Малайбалае (Филиппины) (144 км)
Погода в Генерал-Сантосе (Филиппины) (158 км)
Погода в Давао (Филиппины) (158 км)
Погода в Дипологе (Филиппины) (186 км)
Погода в Замбоанге (Филиппины) (240 км)
Погода в Бутуане (Филиппины) (242 км)
Погода в Думагете (Филиппины) (258 км)
Погода в Хинатуане (Филиппины) (268 км)
Погода в Тагбиларане (Филиппины) (273 км)

Пояснения к столбцам:

Ветер - указаны скорость ветра в м/с - средняя за 10 мин, порывы в срок и между сроками (в фигурных скобках) и направление, откуда дует ветер: С - северный, СВ - северо-восточный, В - восточный, ЮВ - юго-восточный, Ю - южный, ЮЗ - юго-западный, З - западный, СЗ - северо-западный.
Видимость - горизонтальная дальность видимости в метрах или километрах. При видимости от 1 до 10 км при отсутствии осадков обычно наблюдается дымка, при ухудшении видимости до 1 км и менее - туман. В сухую погоду видимость может ухудшаться дымом, пылью или мглою.
Явления - указаны атмосферные явления, наблюдавшиеся в срок или в последний час перед сроком; фигурными скобками обозначены явления, наблюдавшиеся между сроками (за 1-3 часа до срока); квадратными скобками обозначены град или гололедные отложения с указанием их диаметра в мм.
Облачность - указаны через наклонную черту общая и нижняя облачность в баллах и высота нижней границы облаков в метрах; квадратными скобками обозначены формы облаков: Ci - перистые, Cs - перисто-слоистые, Cc - перисто-кучевые, Ac - высококучевые, As - высокослоистые, Sc - слоисто-кучевые, Ns - слоисто-дождевые, Cu - кучевые, Cb - кучево-дождевые. Подробнее классификацию облаков см. в Атласе облаков (PDF).
T - Температура воздуха - температура, измеренная на высоте 2 м над землей.
Td - Температура точки росы - температура, при понижении до которой содержащийся в воздухе водяной пар достигнет насыщения.
f - Относительная влажность воздуха - влажноcть воздуха, измеренная на высоте 2 м над землей.
Te - Эффективная температура - температура, которую ощущает одетый по сезону человек в тени. Характеристика душности погоды. При расчете учитывается влияние влажности воздуха и скорости ветра на теплоощущения человека.
Tes - Эффективная температура на солнце - температура, которую ощущает человек, с поправкой на солнечный нагрев. Характеристика знойности погоды. Зависит от высоты солнца над горизонтом, облачности и скорости ветра. Ночью, в пасмурную погоду, а также при ветре 12 м/с и более поправка равна нулю.
P - Атмосферное давление - приведенное к уровню моря атмосферное давление.
Po - Атмосферное давление - измеренное на уровне метеостанции атмосферное давление.
Tmin - Минимальная температура - минимум температуры воздуха на высоте 2 м над землей.
Tmax - Максимальная температура - максимум температуры воздуха на высоте 2 м над землей.
R - Количество осадков - Количество выпавших осадков за период времени, мм. При наведении курсора мыши на число - период времени, за который выпало указанное количество осадков.
R24 - Количество осадков - Количество выпавших осадков за 24 часа, мм.
S - Снежный покров - Высота снежного покрова, см. При наведении курсора мыши на число - состояние снежного покрова и степень покрытия местности в баллах.